Temp
20 20 20 21 21 21 21 22 22 23 22 22 22 22 22 22 23 22 22 22 23 23 23 23 23 23 23 23 23 23 23 23 23 23 23 22 22 22 22 22 22 23 23 22 22 22 22 22 22 22 22 22 22 22 22 22 22 22 22 22 22 22 22 22 22 21 21 21 21 22 22 21 21 21 21 21 21 21 21 21 21 21 21 21 21
20 21 21 21 21 21 21 22 22 22 22 22 22 22 22 22 22 22 23 22 23 23 23 23 23 23 23 23 23 23 23 23 23 23 22 22 22 22 22 22 23 23 23 23 22 22 22 22 22 22 22 22 22 22 22 22 22 22 21 21 21 21 21 21 21 21 21 21 21 21 22 22 21 21 21 21 21 21 21 21 21 21 20 20 21
21 21 21 21 21 21 21 22 22 22 22 22 22 22 22 23 23 23 23 22 23 23 23 23 23 23 23 23 23 23 23 23 23 22 22 22 22 22 22 23 23 23 23 23 22 22 22 22 22 22 22 22 22 22 22 22 22 22 22 21 21 21 21 21 21 22 21 21 21 21 21 21 21 20 21 21 21 21 20 21 21 21 21 21 20
21 21 21 21 21 21 21 22 22 22 22 22 22 22 22 23 23 23 23 23 23 23 23 23 23 23 23 23 23 23 23 23 23 23 23 22 23 23 23 23 23 23 22 22 22 22 22 22 22 22 22 22 22 21 22 22 22 22 22 21 21 21 21 21 21 21 21 21 21 21 21 21 21 21 21 21 21 21 21 21 21 21 21 21 21
21 21 21 21 21 21 21 22 22 22 22 22 22 22 22 23 23 23 23 23 23 23 23 23 23 23 23 23 23 23 23 23 23 23 23 23 23 23 23 23 22 22 22 22 22 22 22 22 22 22 22 22 22 21 21 22 22 22 22 21 21 21 21 22 21 21 21 21 21 20 21 21 21 21 21 21 21 21 21 21 21 21 21 21 21
21 21 21 21 21 21 22 22 22 22 22 22 22 22 23 23 23 23 23 23 23 23 23 23 23 23 23 23 23 23 23 23 23 23 23 23 23 23 23 23 22 22 22 22 22 22 22 22 22 22 22 22 22 22 22 22 22 22 22 21 21 21 21 21 21 21 21 21 21 20 20 20 20 20 21 21 21 21 21 21 21 21 21 21 21
21 21 21 22 22 22 22 22 22 22 22 22 22 22 22 22 22 23 23 23 23 23 23 23 23 23 23 23 23 23 23 23 23 23 23 23 23 23 23 23 23 22 22 22 22 22 22 22 22 22 22 22 22 22 22 22 22 22 22 21 21 21 21 21 21 21 21 21 21 21 20 20 20 20 21 21 21 21 21 21 21 21 21 21 21
22 22 21 21 21 22 22 22 22 22 22 22 22 22 22 22 22 23 23 23 23 23 23 23 23 23 23 23 23 23 23 23 23 23 23 23 23 23 23 23 23 23 23 22 22 22 22 22 22 22 22 22 22 22 22 22 22 22 22 22 21 21 21 21 21 21 21 21 21 21 20 20 21 20 21 21 21 21 21 21 21 21 21 21 21
22 22 22 22 21 22 22 22 22 22 22 22 22 22 22 22 22 23 23 23 23 23 23 23 23 23 23 23 23 23 23 23 23 23 23 23 23 23 23 23 23 23 23 22 22 22 22 22 22 22 22 22 22 22 22 22 22 22 22 22 21 21 21 21 21 22 22 21 21 21 20 21 21 20 20 21 21 21 21 21 21 21 21 21 21
22 22 22 22 22 22 22 22 23 22 23 22 22 22 22 22 22 23 23 23 23 23 23 23 23 23 23 23 23 23 23 23 23 23 23 23 23 23 22 22 22 23 23 23 23 22 22 22 22 22 22 22 22 21 22 22 22 22 22 22 22 21 21 21 21 21 21 21 21 21 20 21 22 21 20 21 21 21 21 21 21 21 21 21 21
22 22 22 22 22 22 22 23 23 23 23 22 22 22 22 22 22 23 23 23 23 23 23 23 23 23 23 23 23 23 23 24 23 23 23 23 23 22 22 22 22 23 23 23 23 22 22 22 22 22 22 22 22 21 21 22 22 22 22 22 22 21 21 22 22 22 22 21 21 21 21 21 22 21 21 21 21 21 21 21 21 21 21 21 21
22 22 22 22 22 22 23 22 23 22 22 22 22 22 22 22 22 22 23 23 23 23 23 23 23 23 23 23 23 23 23 24 23 23 23 23 23 22 22 23 23 23 23 22 22 22 22 22 22 22 21 22 22 22 21 22 22 23 22 22 22 21 21 22 22 22 22 22 22 21 21 21 22 21 21 21 21 21 21 21 21 21 21 21 21
22 22 22 22 22 22 22 22 22 22 22 22 22 22 22 22 22 22 23 23 23 23 23 23 23 23 23 23 23 23 23 24 23 23 23 23 23 22 22 23 23 23 23 22 23 22 23 23 23 22 22 22 22 23 22 22 23 23 23 22 22 21 21 22 22 22 22 22 22 21 21 22 22 21 21 21 21 21 21 21 21 21 21 21 21
22 22 22 22 22 22 22 22 22 22 22 22 22 22 22 22 22 22 23 23 23 23 23 23 23 23 23 23 23 23 23 23 23 23 23 23 23 23 23 23 23 23 23 23 23 23 23 23 23 23 23 23 23 23 23 23 23 23 23 22 21 21 22 22 22 22 22 22 22 22 22 22 22 22 21 21 21 21 21 21 20 20 21 21 21
22 22 22 22 22 22 23 22 22 22 22 22 22 22 22 22 22 23 23 23 23 23 23 23 23 23 23 23 23 23 23 23 23 23 23 23 23 23 23 23 23 23 23 23 23 23 23 23 23 23 23 23 23 23 23 23 23 23 23 22 22 22 22 22 22 22 22 22 22 22 22 22 22 22 21 21 21 21 21 21 20 20 21 21 21
22 22 22 22 22 22 23 22 23 22 22 22 22 22 22 23 22 23 23 23 23 23 23 23 23 23 23 23 23 23 23 23 23 23 23 23 23 23 23 24 23 23 23 23 23 23 23 23 23 23 23 23 23 23 24 23 24 23 23 22 22 22 22 22 22 22 22 22 22 22 22 22 22 21 21 21 21 21 21 21 21 21 20 20 21
22 23 22 22 22 22 22 22 22 22 22 22 22 22 22 22 22 22 23 23 23 23 23 23 23 23 23 23 23 23 23 23 23 23 23 23 23 23 23 23 24 23 23 23 23 24 23 23 23 23 23 23 24 24 24 24 24 23 23 22 22 22 22 22 22 22 22 22 22 22 22 22 22 21 21 21 21 21 21 21 21 21 21 21 20
23 23 23 22 22 22 22 22 22 22 22 22 22 22 22 22 22 23 23 23 23 23 23 23 23 23 23 23 23 23 23 23 23 23 23 23 23 23 23 23 23 24 23 23 24 24 24 24 24 23 23 24 23 24 24 24 23 23 22 22 21 22 22 22 22 22 22 22 22 22 22 22 22 22 21 21 21 21 21 21 21 21 21 21 20
23 23 23 22 22 22 22 22 22 22 22 22 22 22 22 23 23 23 23 23 23 23 23 23 23 23 23 23 23 23 23 23 23 23 23 23 24 23 24 24 23 24 23 23 24 24 24 24 24 24 23 23 23 23 23 23 23 23 22 22 22 22 22 22 22 22 22 22 22 22 22 22 22 22 21 21 21 21 21 21 21 21 21 21 20
23 23 23 23 22 22 22 22 22 22 22 22 22 22 22 23 23 23 23 23 23 23 23 23 23 23 23 23 23 23 23 23 23 23 23 23 24 24 24 24 24 24 24 24 24 24 24 24 24 24 23 23 23 23 23 23 23 23 23 22 22 22 22 22 22 22 22 22 21 22 22 22 22 22 21 21 21 21 21 21 21 21 21 21 20
23 23 23 23 22 22 23 23 23 23 23 23 22 23 22 23 23 23 23 23 23 23 23 23 23 23 23 23 23 23 23 23 23 23 23 23 24 24 24 24 24 24 24 24 24 24 24 24 24 24 23 23 23 23 23 23 24 23 23 23 22 22 22 22 22 22 22 22 21 22 22 22 22 22 21 21 21 21 21 21 21 21 21 21 20
23 23 23 23 22 23 23 23 23 23 23 23 23 23 23 23 23 23 23 23 23 23 23 23 23 23 23 23 23 23 22 22 22 23 23 23 24 24 24 24 24 24 24 24 24 24 24 24 24 23 24 24 24 23 23 23 24 24 24 23 23 23 23 23 23 23 22 22 22 22 22 22 22 22 21 21 21 21 21 21 21 21 21 20 20
24 23 23 23 23 23 23 23 23 23 23 23 23 23 23 23 23 23 23 23 23 23 23 23 23 23 23 23 23 22 22 22 23 23 23 23 24 24 24 24 24 24 24 24 24 24 24 24 24 24 24 24 24 24 23 23 23 24 24 24 24 24 23 23 23 23 23 22 22 22 22 22 22 22 22 21 21 21 21 21 21 21 21 21 21
24 24 24 24 23 23 23 23 23 22 22 23 23 23 23 23 23 23 24 24 23 23 23 23 24 23 23 23 23 23 23 23 23 23 23 23 24 24 24 24 24 24 24 24 24 24 24 24 24 24 24 24 24 24 24 24 23 24 24 24 24 24 24 24 24 24 23 23 23 22 22 22 22 22 22 22 21 21 21 21 21 21 21 21 21
25 24 24 24 24 23 23 23 23 22 22 23 23 23 23 23 23 23 23 23 23 23 24 24 24 23 23 23 23 23 23 23 24 24 23 23 24 24 24 24 24 24 24 24 24 24 24 24 24 24 24 24 24 24 24 24 24 24 24 24 24 24 24 24 24 24 24 23 23 23 23 22 22 22 22 22 21 21 21 21 21 21 21 21 21
25 25 25 24 24 23 23 23 23 23 23 23 23 24 23 23 23 23 23 23 23 24 24 24 23 23 23 23 23 23 23 23 24 24 23 23 23 24 24 24 24 24 24 24 24 24 24 24 24 24 24 24 24 24 24 24 24 24 24 24 24 24 24 24 24 24 24 24 23 23 23 22 22 22 22 21 21 21 21 21 21 21 21 21 21
25 25 25 24 24 24 24 24 23 23 23 23 23 24 24 24 23 23 23 23 23 24 24 23 23 23 23 23 23 23 23 24 24 24 24 23 23 24 24 24 24 24 24 24 24 24 24 24 24 24 24 24 24 24 24 24 24 25 24 24 24 24 24 24 24 24 24 24 23 23 23 23 22 22 22 21 21 21 21 21 21 21 21 21 21
26 26 25 25 25 24 24 24 24 24 24 23 23 24 24 23 23 23 23 23 23 23 24 23 23 23 23 23 24 24 24 24 24 24 24 23 24 24 24 24 24 24 24 24 24 24 24 24 24 24 24 24 24 24 25 25 25 25 25 25 25 25 25 24 24 25 25 24 23 23 23 23 23 22 22 22 21 21 21 21 21 21 21 21 21
26 26 25 25 25 25 24 24 24 24 24 24 24 24 24 23 23 23 23 24 24 24 24 24 24 24 24 24 24 24 24 24 24 24 24 24 24 24 24 24 24 24 24 24 24 24 24 24 24 24 24 24 24 25 25 25 25 25 25 25 25 25 25 25 25 25 25 25 24 24 23 23 23 23 22 22 22 21 21 21 21 21 21 21 21
26 26 26 25 25 25 24 24 24 24 24 24 24 24 24 24 24 24 24 24 24 24 24 24 24 24 24 24 24 24 24 24 24 24 24 24 24 24 24 24 24 24 24 24 24 24 24 24 24 24 24 24 24 25 25 25 25 25 25 25 25 25 25 25 25 24 25 25 24 24 23 23 23 23 23 22 22 22 21 21 21 21 21 21 21
26 26 26 26 25 25 25 25 24 24 25 25 24 24 24 24 24 24 24 24 24 25 24 24 25 25 25 24 24 24 24 24 24 24 24 24 24 24 24 24 24 24 24 24 24 24 24 24 24 24 24 24 24 25 25 25 25 25 25 25 25 25 25 25 25 25 24 24 24 24 24 23 23 23 23 23 22 22 22 21 21 21 21 20 20
27 26 26 26 26 26 25 25 25 25 25 25 25 25 25 25 25 25 25 25 25 25 25 25 25 25 25 24 24 24 24 25 24 24 24 24 24 24 24 24 24 24 24 24 24 24 24 24 24 24 24 24 24 24 25 25 25 25 25 25 25 25 25 25 25 25 25 24 24 24 24 23 23 23 23 23 22 22 22 22 21 21 21 20 20
27 27 27 26 26 26 25 25 25 25 25 25 25 25 25 25 25 25 25 25 25 25 25 25 25 25 25 25 24 24 24 24 24 24 24 24 24 24 24 24 24 24 24 24 24 24 24 23 23 23 24 24 24 24 25 25 25 25 25 25 25 25 25 25 25 25 25 24 24 24 24 23 23 23 23 23 22 22 22 22 22 21 21 21 21
28 27 27 27 26 26 26 25 25 25 25 25 25 25 25 25 25 25 25 26 26 26 26 26 25 25 25 25 25 25 25 24 24 24 24 24 24 24 24 24 24 24 24 24 24 23 23 23 23 23 24 24 24 24 25 25 24 25 25 25 25 25 25 25 25 25 25 24 24 24 23 23 23 23 23 23 22 22 22 22 21 21 21 21 21
28 28 27 27 27 27 26 26 25 25 25 25 26 26 26 26 26 25 26 26 26 26 26 26 26 25 25 25 25 25 25 24 25 25 24 24 24 24 24 24 24 24 24 24 23 23 23 23 23 23 24 24 24 24 24 24 24 25 25 25 25 25 25 25 25 25 25 24 24 23 23 23 23 22 23 23 22 22 22 22 21 21 21 21 21
28 28 28 27 27 27 27 26 26 26 25 26 26 26 26 26 26 26 26 26 26 26 26 26 26 25 25 25 25 25 25 24 25 25 25 24 24 24 24 24 24 24 24 24 23 23 23 23 23 23 23 24 24 24 24 24 24 25 25 25 25 25 25 25 25 25 25 24 24 24 23 23 22 22 22 22 22 22 22 22 21 21 21 21 21
29 28 28 28 28 28 27 27 26 26 26 26 26 26 26 26 26 26 26 26 26 26 26 26 26 25 25 25 25 25 25 25 25 25 25 24 24 23 24 24 23 23 23 23 23 23 23 23 23 23 23 23 23 24 24 24 24 24 25 24 24 24 25 25 25 25 25 25 24 24 24 23 23 23 23 23 22 22 22 22 21 21 21 21 21
29 29 28 28 28 28 27 27 26 26 26 26 26 26 26 26 26 26 26 26 26 26 26 26 26 26 25 25 25 25 25 25 25 25 25 25 24 23 23 23 23 23 23 23 23 23 23 23 23 23 23 23 23 23 24 24 24 24 24 24 24 24 25 25 25 25 25 25 24 24 24 23 23 23 23 23 22 22 22 21 21 21 21 21 21
29 29 29 28 28 28 28 27 27 26 26 26 26 26 27 26 26 26 26 26 26 26 26 26 26 26 26 25 25 25 25 25 25 25 25 25 24 23 23 23 23 23 23 23 23 23 23 23 23 23 23 23 23 23 24 24 24 24 24 24 24 24 25 25 25 25 25 25 24 24 24 23 23 23 23 23 22 22 22 21 21 21 21 21 21
29 29 29 29 28 28 28 28 27 26 26 26 26 26 26 26 26 26 26 26 26 26 26 26 26 26 26 26 25 25 25 25 25 25 25 24 24 23 23 22 22 23 23 22 22 22 22 22 23 23 23 23 23 23 23 23 24 24 24 24 24 24 25 25 25 25 25 25 24 24 24 23 23 23 23 22 22 22 22 21 21 21 21 21 21
29 29 29 29 29 28 28 28 27 27 26 26 26 26 26 26 26 26 26 26 26 26 26 26 26 26 26 26 25 25 25 25 25 25 24 24 24 23 23 22 22 23 23 22 22 22 22 22 22 23 23 23 23 23 23 23 23 24 24 24 24 24 24 25 25 25 25 25 24 24 24 24 23 23 23 22 22 22 22 21 21 21 21 21 21
29 29 29 29 29 28 28 28 27 27 26 26 26 26 26 26 26 26 26 26 26 25 25 26 26 26 26 25 25 25 25 25 25 25 24 24 23 23 22 22 22 22 22 22 22 22 23 23 22 23 23 23 23 23 23 23 23 23 23 23 23 24 24 24 24 25 25 24 24 25 24 24 24 23 23 22 22 22 22 22 21 21 21 21 21
29 29 29 28 29 28 28 28 28 27 26 26 26 26 26 26 26 25 25 25 26 25 25 25 26 26 26 25 25 25 25 24 25 24 24 24 23 23 22 22 22 22 22 22 22 23 23 23 23 23 23 23 23 24 24 24 23 23 23 22 23 23 23 24 24 24 25 24 25 25 25 24 24 23 23 22 22 22 22 22 21 21 21 21 21
29 29 28 28 28 28 28 28 28 27 26 26 26 26 26 26 25 25 25 26 26 26 25 25 26 26 26 25 25 25 25 24 24 24 24 23 23 23 23 23 22 22 23 23 22 23 23 23 23 23 23 23 23 23 23 24 24 23 23 22 22 22 23 23 24 24 25 25 25 25 25 24 24 24 23 23 22 22 22 22 22 21 21 21 20
29 29 28 28 28 28 28 28 28 27 26 26 26 26 26 25 25 25 25 26 26 26 25 25 25 26 26 25 25 25 25 24 24 24 23 23 23 23 23 23 23 23 23 23 22 23 23 23 23 23 23 23 23 23 23 23 24 24 23 22 22 22 22 23 23 24 25 25 24 25 25 24 24 24 24 23 22 22 22 22 22 21 21 21 20
29 29 29 28 28 28 28 27 28 27 27 26 26 26 25 25 26 26 26 26 26 26 25 25 25 26 26 25 25 25 25 24 24 23 23 23 23 23 23 23 23 23 23 23 23 23 23 23 23 23 23 23 23 23 23 23 23 24 24 23 23 23 23 23 23 23 24 25 24 24 24 24 24 24 23 23 23 22 22 22 21 21 21 21 21
29 29 29 28 28 27 28 27 27 27 27 26 26 26 25 25 26 26 26 26 26 26 26 26 26 26 25 25 25 25 25 24 23 23 23 23 23 23 23 23 23 23 23 23 23 23 23 23 23 23 23 23 23 23 22 23 23 23 23 23 23 23 23 23 23 23 23 24 24 24 24 24 24 24 23 23 23 23 22 22 22 21 21 21 21
30 29 29 28 28 28 27 27 27 27 27 26 26 26 26 26 26 26 26 26 26 26 26 26 26 26 25 25 25 25 24 24 23 23 23 23 23 23 23 23 23 23 23 23 23 24 24 23 23 23 23 23 23 23 22 23 23 23 23 23 23 23 23 23 23 23 23 23 23 24 24 24 24 24 23 23 23 23 23 22 22 22 21 21 21
30 29 29 29 28 28 27 27 27 26 27 26 26 26 26 26 26 26 26 26 26 26 26 26 26 26 25 25 25 25 24 24 24 23 23 23 23 23 23 23 23 23 23 23 24 24 23 23 23 23 23 23 23 23 23 23 23 23 23 23 23 23 23 23 24 24 23 23 23 23 23 23 24 24 23 23 23 23 23 22 22 22 21 21 21
30 30 29 29 28 28 27 27 27 26 26 26 26 26 26 26 25 25 26 25 26 26 26 26 26 26 26 25 25 25 24 24 24 24 24 24 23 23 23 23 23 23 23 24 24 23 23 23 23 23 23 23 23 23 23 23 23 23 23 23 23 23 23 23 23 24 23 23 23 23 22 23 23 23 23 23 23 23 23 22 22 22 22 22 22
30 30 29 29 28 27 27 27 26 26 26 26 26 26 26 25 25 25 25 25 25 25 26 26 26 26 26 26 25 25 25 24 24 24 24 24 23 23 23 23 23 23 23 24 24 23 23 24 23 23 23 22 22 23 23 22 22 23 23 23 23 23 23 23 23 24 23 23 23 22 22 23 23 23 23 23 23 23 23 23 22 22 22 22 22
Height
812 811 812 812 813 813 815 815 816 817 818 819 820 822 823 824 825 826 827 828 830 831 832 833 833 834 835 836 837 837 838 839 839 840 841 842 842 843 844 844 844 843 843 843 844 844 844 844 844 844 844 844 844 843 843 843 843 843 843 843 843 842 843 843 843 844 844 845 845 845 846 846 846 847 847 847 847 848 848 849 849 850 850 850 851
811 812 812 812 813 814 816 816 817 817 819 820 821 823 824 826 827 828 828 830 831 832 833 834 834 835 836 837 838 838 839 840 841 842 843 843 844 844 845 845 845 845 845 845 845 845 845 845 845 845 845 845 844 844 844 844 843 844 844 843 844 844 844 844 844 845 845 846 846 846 846 846 847 847 848 848 848 849 849 850 850 850 851 851 852
810 812 812 813 814 815 816 817 818 818 820 821 823 824 825 827 828 829 830 831 832 833 834 834 835 836 837 838 839 840 841 841 842 843 844 844 845 845 846 846 846 846 846 846 846 846 846 846 846 846 846 846 845 845 844 844 844 844 844 844 845 845 845 845 845 846 846 846 847 847 847 847 847 848 848 848 849 849 850 850 851 851 852 852 853
810 811 813 814 815 816 817 817 819 820 821 822 824 825 826 828 829 830 831 833 833 834 835 835 837 837 838 839 840 841 842 842 843 844 844 845 845 846 846 847 847 847 847 848 848 847 847 847 847 847 847 846 846 846 845 845 845 845 845 845 845 846 846 845 846 846 846 847 847 847 848 848 848 849 849 849 849 850 851 851 852 852 853 853 853
811 812 813 814 815 817 818 818 819 821 822 823 825 826 828 828 830 831 832 833 834 835 836 837 838 838 839 840 841 842 843 843 844 844 845 845 846 847 847 847 848 848 849 849 849 849 848 848 848 848 848 847 847 846 846 846 846 846 846 846 846 846 845 845 846 846 847 847 848 848 849 849 849 850 850 850 850 851 851 852 852 853 853 854 854
810 811 813 814 815 817 818 819 820 822 823 824 826 827 828 829 831 832 833 834 834 836 836 838 839 839 840 841 842 843 844 844 844 845 846 846 846 847 848 848 849 849 850 850 850 850 849 849 849 848 848 848 848 847 847 847 847 847 847 847 847 847 846 846 847 847 848 848 849 850 850 850 850 850 851 851 851 851 851 852 853 854 854 855 855
810 811 813 813 815 817 818 820 821 823 823 825 826 828 829 830 831 832 833 834 835 836 837 839 839 840 841 842 843 844 844 845 845 846 846 846 847 848 849 849 850 850 850 850 850 850 850 850 849 849 849 849 848 848 848 848 848 848 849 848 847 847 847 848 848 849 849 849 849 851 851 851 852 851 851 851 852 852 852 853 853 854 855 856 856
810 812 812 813 815 817 819 820 822 822 823 825 826 828 830 831 832 832 833 834 836 837 838 839 840 841 841 843 844 845 845 845 846 846 847 847 848 849 849 850 850 851 851 851 851 851 851 850 850 850 849 849 849 849 849 849 849 849 849 848 848 848 848 849 849 849 849 849 850 851 852 852 853 852 852 852 852 853 853 854 854 855 856 856 857
811 812 813 814 815 817 819 821 822 823 823 825 827 829 830 831 832 833 834 835 836 838 839 840 840 841 842 843 844 845 845 846 846 846 847 847 849 849 850 851 851 851 851 851 851 851 851 851 850 850 850 849 849 849 849 849 849 849 849 849 848 849 849 849 849 849 849 850 851 852 852 853 853 853 854 853 853 854 854 854 855 856 857 857 858
811 813 814 815 816 818 819 821 822 823 824 825 828 829 830 832 833 834 835 836 837 838 839 840 841 842 843 844 845 845 846 846 846 847 847 848 849 850 851 851 851 852 852 852 851 851 851 851 851 850 850 850 850 850 850 850 850 850 849 849 849 849 850 850 850 850 850 851 851 852 853 853 854 854 855 854 854 855 855 855 855 857 858 859 859
811 813 814 815 817 819 820 822 822 824 825 826 828 829 831 832 833 834 835 836 837 839 839 841 841 842 843 844 845 845 846 846 847 847 848 849 850 850 851 851 852 852 852 852 851 851 851 851 851 850 850 850 850 850 850 850 850 849 849 850 850 850 850 850 850 851 851 852 852 853 854 854 855 855 856 856 855 856 856 856 856 857 858 859 861
811 813 814 816 817 819 821 822 823 824 825 827 829 830 831 832 834 834 836 837 838 839 840 841 842 843 843 844 845 845 846 846 847 848 849 849 850 851 851 852 852 852 852 852 852 851 851 851 851 851 850 850 850 850 850 850 849 849 850 850 850 851 851 851 851 852 852 852 853 853 854 855 855 856 856 857 856 857 857 857 858 858 858 860 861
811 813 814 816 818 820 821 822 823 825 826 828 829 830 831 832 834 835 836 837 838 839 840 841 842 843 844 844 845 846 846 847 848 848 849 850 851 851 852 852 852 853 852 852 852 852 852 852 851 851 851 850 850 850 850 849 849 849 850 850 851 851 851 851 852 852 853 853 853 853 854 855 856 856 857 857 857 857 858 859 859 859 860 860 861
811 813 815 816 818 821 821 823 824 825 827 828 829 830 832 832 834 835 836 837 838 839 840 841 842 843 843 844 845 846 847 847 848 849 850 851 851 852 852 853 853 853 853 853 852 852 852 852 852 852 851 851 851 850 850 849 849 849 850 851 851 851 851 851 852 852 853 853 853 854 854 855 856 856 857 858 858 858 859 860 861 861 861 861 862
811 813 815 817 819 821 822 824 824 826 827 828 830 830 832 833 834 835 836 837 838 839 840 841 842 843 843 845 846 847 847 848 849 849 850 851 852 852 852 853 853 853 853 853 853 853 853 853 853 852 852 852 851 851 850 850 849 849 850 851 851 851 851 852 852 852 853 853 854 854 855 856 856 856 857 858 858 859 859 860 861 862 862 863 863
811 813 816 818 819 821 822 824 825 826 827 828 829 830 832 832 834 835 836 837 838 839 840 841 842 843 844 845 846 847 848 848 849 850 851 851 852 853 853 853 853 854 853 853 853 853 853 853 854 853 853 852 852 851 850 850 849 850 850 851 851 851 852 852 853 853 853 854 854 855 856 856 856 857 858 858 859 859 860 861 862 862 863 864 865
812 814 815 817 819 821 822 824 825 826 827 829 829 830 832 832 834 835 836 837 838 839 840 841 842 843 844 845 846 847 848 848 849 850 851 852 852 853 853 853 853 854 854 853 853 853 854 854 854 854 853 853 852 852 851 850 850 850 851 851 852 853 853 853 853 853 854 854 854 856 856 856 857 857 858 858 859 859 860 861 862 863 864 865 865
813 814 815 817 819 821 822 823 825 826 827 828 830 830 831 832 834 835 836 837 838 839 840 841 842 843 844 845 846 847 848 849 850 850 851 852 852 853 853 853 853 853 854 853 854 853 854 854 854 854 854 854 853 852 851 851 851 851 852 852 852 853 853 853 854 854 854 854 855 856 856 856 857 857 858 858 859 860 861 861 862 863 864 865 866
813 814 815 817 818 820 821 823 824 825 827 828 829 830 832 832 833 835 835 837 838 839 840 841 842 843 844 845 846 847 848 849 850 850 851 852 852 852 852 853 853 853 853 853 854 854 854 854 854 854 854 854 854 853 851 850 851 851 852 852 853 853 853 854 854 854 854 854 855 855 856 856 857 857 858 859 859 860 861 862 862 863 864 865 866
813 814 815 817 818 820 821 823 824 825 827 827 829 830 831 832 833 835 835 837 837 839 840 841 842 843 844 845 846 847 848 849 849 850 850 851 851 852 852 852 853 853 853 853 854 854 854 854 854 855 855 855 854 854 852 850 850 852 852 852 853 853 853 854 854 854 854 855 855 855 856 856 857 857 858 859 860 861 861 862 863 864 865 865 866
814 814 815 817 818 819 820 822 823 825 826 827 829 829 831 832 833 834 835 836 837 839 840 841 842 843 844 844 846 846 847 848 849 850 850 851 851 851 852 852 852 852 853 853 853 853 854 854 854 855 855 855 855 854 852 849 850 853 853 852 853 853 853 853 853 854 854 855 855 856 856 856 857 858 859 860 861 861 862 862 863 864 865 866 867
812 814 815 816 817 819 819 821 822 824 825 826 828 829 830 831 833 834 835 836 837 839 839 840 841 842 844 844 845 846 847 848 848 849 849 850 850 851 851 851 852 852 852 853 853 853 854 854 854 855 854 855 855 854 852 849 850 852 852 852 852 852 852 853 853 853 854 855 855 856 856 856 857 858 859 860 861 862 862 863 863 864 865 866 867
810 812 814 815 816 818 819 820 821 823 824 826 827 828 830 830 832 833 834 836 836 838 839 840 841 842 843 843 845 845 846 847 847 848 848 849 850 850 851 851 851 852 852 852 853 853 854 854 854 855 854 854 854 853 852 850 850 852 852 852 852 852 851 852 852 853 853 854 855 855 856 857 857 858 859 860 861 862 862 863 863 864 865 866 867
809 810 812 814 815 816 818 819 820 822 824 825 826 827 829 830 831 832 833 835 836 837 838 839 840 841 842 843 844 845 846 846 847 847 848 849 849 850 850 851 851 851 852 852 853 853 854 854 854 855 855 854 854 853 852 852 851 851 852 852 852 852 851 852 852 852 853 853 854 854 855 857 857 858 859 860 861 861 862 862 863 864 865 866 867
807 809 811 813 814 816 817 818 820 821 823 824 825 826 828 829 830 832 833 834 835 836 837 839 840 841 842 842 843 844 845 846 846 847 847 848 848 849 850 850 851 851 852 852 852 853 853 854 854 854 855 855 854 854 853 852 851 851 852 852 852 852 852 852 852 852 852 853 854 854 855 856 857 857 858 859 860 861 862 862 863 864 865 866 866
806 808 810 811 813 815 816 817 819 820 822 823 824 826 827 828 829 831 832 833 835 836 837 838 839 840 841 841 842 843 844 845 846 846 847 847 848 849 849 850 850 851 851 852 852 852 853 854 854 854 855 855 854 854 853 852 852 851 851 851 851 851 851 852 852 852 852 853 854 854 855 855 856 857 858 859 859 860 861 862 862 863 864 865 866
805 807 808 811 812 814 816 816 818 819 821 822 823 825 826 827 829 830 831 833 834 835 836 837 838 839 840 841 841 842 843 844 845 845 846 846 847 848 848 849 850 850 851 851 852 852 853 853 854 854 854 854 854 853 852 852 851 851 851 851 850 850 850 851 851 852 852 853 854 854 855 855 856 856 857 858 858 859 860 861 861 862 864 865 866
803 805 807 809 811 813 814 815 817 819 820 822 823 824 825 827 828 830 831 831 833 834 835 836 837 838 839 840 840 842 843 843 844 844 845 845 846 847 847 848 849 850 850 851 852 852 853 853 854 854 854 854 853 853 852 851 851 850 850 850 850 850 850 850 851 852 852 852 853 853 854 854 855 855 856 857 858 858 859 860 860 862 863 865 866
801 803 806 807 810 811 812 814 815 817 819 821 822 823 825 826 828 829 830 831 832 833 834 835 836 837 838 839 840 841 842 843 843 843 844 844 845 846 847 848 849 849 850 851 851 852 853 853 853 853 854 854 853 852 851 851 851 850 850 850 850 850 850 850 850 851 851 852 852 853 853 854 854 855 855 856 857 858 858 859 860 861 863 864 865
800 802 804 806 808 810 811 813 814 816 818 820 821 822 824 825 827 828 829 830 831 832 833 834 835 836 837 838 839 840 841 841 842 843 843 844 845 846 846 847 848 849 849 850 851 851 852 852 852 853 853 853 853 852 851 851 851 851 850 850 850 850 850 850 850 851 851 851 852 853 853 854 854 855 855 855 856 857 858 858 859 861 862 863 864
798 800 802 804 806 808 810 811 813 815 817 818 820 821 823 824 825 827 828 829 830 831 832 833 834 835 836 837 839 839 840 841 841 842 843 844 844 845 846 846 847 848 848 849 850 850 850 851 851 852 852 852 852 851 851 851 851 851 850 850 850 850 850 850 850 850 850 850 851 852 853 853 854 855 855 855 856 856 857 858 859 860 862 863 864
795 798 800 802 804 806 808 810 812 814 815 817 819 821 822 823 825 826 827 828 829 830 831 832 833 834 835 837 838 839 840 840 841 842 842 843 844 844 845 845 846 846 847 848 848 849 849 850 850 851 852 852 852 851 851 851 851 850 850 850 850 850 850 849 850 849 849 849 851 852 852 853 854 855 856 856 856 856 857 857 858 859 861 861 862
793 795 798 800 802 804 807 808 810 812 814 816 818 819 821 822 823 824 826 827 828 829 830 832 832 833 834 836 837 838 839 839 840 841 841 842 843 844 844 844 845 845 845 846 847 848 848 849 849 850 851 851 851 851 851 851 850 850 849 850 850 850 850 849 849 848 848 849 851 852 852 853 854 855 856 856 856 857 857 857 858 859 859 860 860
790 793 796 798 800 802 805 807 809 811 813 815 817 818 820 821 822 823 825 826 827 829 830 831 831 832 833 835 836 837 838 838 839 840 840 841 841 842 843 843 843 844 844 845 845 846 846 847 848 849 850 850 850 850 850 850 850 850 849 849 850 850 850 850 849 848 848 850 851 852 852 853 854 854 855 855 856 857 857 857 857 858 858 859 859
788 790 793 795 798 800 803 805 807 809 811 813 815 817 818 819 821 822 824 825 826 828 829 830 830 831 832 833 835 835 836 837 837 838 839 840 840 840 841 842 842 843 843 843 844 845 845 846 847 848 848 849 849 849 850 850 850 850 849 849 850 850 850 850 850 849 849 849 851 851 852 853 853 854 854 855 856 856 856 857 857 858 858 858 859
786 789 791 793 796 798 800 803 805 808 810 812 813 815 817 818 820 821 823 824 825 827 828 829 829 830 831 832 833 834 835 836 836 837 838 838 839 839 840 841 841 841 842 842 843 844 844 845 846 846 847 848 848 848 849 849 849 849 849 849 850 850 850 850 850 850 850 850 850 851 851 852 853 854 854 854 855 855 856 856 857 857 857 858 858
784 787 789 791 794 796 799 801 803 806 808 810 812 814 815 817 819 820 822 823 824 826 827 828 828 829 830 831 832 833 834 834 834 835 836 837 837 838 839 839 840 840 841 841 842 843 844 844 845 846 846 847 847 848 848 848 848 848 848 849 849 849 849 849 850 850 850 851 851 851 851 852 853 853 854 854 854 855 855 856 856 856 856 857 857
782 785 787 790 792 794 796 798 801 804 806 809 810 812 814 816 818 819 821 822 823 824 825 827 827 827 828 829 830 831 832 833 833 834 834 835 836 837 838 839 839 839 840 840 841 842 843 844 844 845 845 846 846 847 847 848 848 848 848 848 848 849 849 848 849 849 850 850 851 852 852 852 853 854 854 854 855 855 855 855 855 856 856 856 857
780 783 785 788 790 793 794 797 799 801 804 807 809 811 812 815 817 818 820 821 822 823 824 825 826 827 827 828 829 829 831 831 832 833 833 834 835 836 837 838 838 838 839 840 841 842 842 843 844 844 845 845 846 846 847 847 848 848 847 848 848 848 847 847 848 848 849 849 850 851 852 853 853 853 854 854 855 856 856 856 855 855 856 856 856
778 781 783 786 788 791 793 795 796 798 802 805 807 809 811 813 815 817 818 819 820 821 822 823 824 825 826 826 827 828 829 830 831 832 833 833 834 835 836 837 837 837 838 839 840 841 841 842 843 844 844 845 846 846 846 847 847 847 847 847 847 847 847 846 847 848 848 849 850 851 851 852 852 853 853 854 855 856 856 856 856 855 856 856 856
776 778 780 783 786 788 790 792 794 796 798 801 804 806 808 810 812 814 816 817 819 820 821 822 823 824 824 825 825 827 828 829 830 831 832 833 833 834 835 835 836 836 837 838 839 840 841 842 842 843 844 844 845 845 846 847 846 846 846 847 846 846 847 847 847 848 848 850 850 850 851 851 851 852 853 853 854 855 856 856 856 856 856 856 856
772 775 777 780 783 786 788 790 792 793 795 797 800 803 805 807 809 811 814 816 817 818 819 820 821 822 822 823 824 825 827 828 829 830 831 832 832 833 834 834 835 835 836 837 839 839 840 841 842 843 843 844 844 845 845 846 846 846 846 847 847 847 847 846 847 847 848 850 850 849 850 851 851 852 852 853 854 855 855 855 856 856 856 856 856
770 773 775 778 781 784 786 788 790 791 793 795 797 800 803 805 807 809 812 814 815 817 818 819 820 821 821 822 823 824 826 827 828 828 829 830 831 832 833 833 834 835 836 837 838 839 840 840 841 842 842 843 844 844 845 845 845 846 846 848 848 848 848 847 847 847 847 849 849 848 849 850 851 851 851 852 853 854 854 855 855 855 856 856 856
767 770 772 775 777 780 783 785 787 789 791 793 795 798 802 804 807 809 811 813 814 815 817 818 819 820 820 820 822 823 824 825 826 827 828 829 830 831 832 833 833 834 835 836 837 838 838 839 840 841 841 842 843 843 844 844 844 845 847 849 849 850 852 849 846 847 847 848 848 847 849 850 850 851 851 851 852 853 853 854 854 855 855 856 856
763 765 767 770 773 776 779 782 785 787 789 791 793 797 800 803 806 808 811 812 813 814 815 816 817 818 819 819 820 821 823 824 825 826 827 828 829 830 831 832 832 833 834 835 836 836 837 837 838 839 839 840 841 841 842 843 843 844 845 847 849 851 852 848 846 847 847 848 848 848 848 849 850 850 850 851 851 852 853 853 853 854 854 855 855
758 761 764 766 770 773 776 780 782 785 787 789 792 795 798 801 803 805 807 808 810 811 811 813 814 815 816 817 819 820 821 823 824 825 826 827 828 829 830 831 831 832 833 834 834 835 835 836 836 837 838 838 839 840 841 842 842 843 843 845 847 849 849 846 847 849 847 847 848 849 848 849 849 850 850 850 851 852 852 852 853 853 853 853 854
754 757 761 764 767 770 774 776 779 781 784 787 789 792 795 798 800 801 803 804 806 807 809 811 812 814 815 816 817 819 820 821 822 824 825 826 827 828 829 830 830 831 832 832 833 833 834 835 836 836 836 837 838 839 840 841 841 842 842 843 844 845 846 846 848 849 850 849 848 849 849 849 849 849 850 850 851 851 852 852 852 853 853 853 853
751 755 758 761 763 767 770 773 776 778 781 784 787 789 792 794 797 799 801 802 803 805 807 809 811 812 814 815 816 817 819 820 821 822 824 825 826 827 828 828 829 830 830 831 832 832 833 834 834 835 836 836 837 838 839 839 840 841 842 843 844 844 846 846 846 847 850 851 849 849 849 850 850 850 850 850 850 851 851 852 852 852 853 853 853
748 751 754 757 760 763 767 770 773 776 778 782 784 786 789 792 794 797 798 800 802 804 806 808 809 811 812 813 814 816 817 818 820 821 822 823 824 825 826 827 828 828 829 830 830 831 832 833 833 834 835 836 837 837 838 839 840 841 841 842 843 844 845 845 846 846 847 850 850 849 849 850 850 850 850 850 851 850 850 851 851 852 852 853 852
743 747 751 755 757 760 763 767 770 773 776 778 781 784 786 789 792 794 796 798 800 802 804 806 808 809 810 811 812 814 816 817 818 819 821 822 823 824 825 825 826 827 828 828 829 830 831 832 833 834 835 836 837 837 838 839 840 840 841 842 842 843 844 844 845 846 846 848 849 849 849 849 849 850 850 850 850 849 850 850 850 851 851 851 852
739 743 747 751 754 757 759 763 766 770 773 775 778 781 783 786 788 791 793 795 797 799 801 803 805 807 808 809 810 812 814 815 816 818 819 820 821 822 823 823 824 825 826 827 829 830 831 832 833 833 834 835 837 837 838 839 840 840 840 841 842 842 843 843 844 844 845 846 847 848 848 848 848 849 849 850 849 849 849 849 850 850 850 850 850
Wind_Speed
17 17 20 21 22 23 24 26 29 29 28 28 28 26 25 26 25 25 26 26 25 24 24 24 24 24 24 23 22 22 22 22 21 21 20 20 20 20 19 18 18 18 17 17 16 15 14 14 14 14 15 15 15 15 14 13 12 11 10 11 12 12 12 12 12 11 11 11 11 12 12 11 11 12 12 13 13 13 13 12 12 14 15 14 14
20 19 20 23 24 23 24 26 27 28 27 26 26 26 24 25 25 24 25 24 24 24 23 23 23 23 22 22 21 22 21 21 20 20 19 19 19 18 17 17 17 18 17 16 15 14 13 13 13 14 14 13 14 14 14 13 12 11 9 9 10 11 11 11 11 12 12 11 11 11 11 11 10 11 11 12 12 13 13 12 13 14 15 14 13
22 20 21 24 24 23 23 24 25 26 25 25 25 25 24 25 24 24 23 23 23 23 23 22 22 22 21 21 21 21 21 20 19 19 18 18 18 17 16 16 16 16 15 15 14 13 13 12 12 13 13 13 13 12 13 13 12 10 9 9 9 10 10 9 10 12 12 11 11 11 10 10 10 10 10 11 12 12 13 12 13 14 14 13 13
23 22 22 23 24 24 23 24 26 26 26 25 25 24 24 25 24 23 22 22 21 22 22 22 21 20 20 20 20 20 20 19 18 18 18 17 17 16 16 16 15 15 14 14 13 13 12 12 12 12 12 12 12 11 11 12 12 11 9 9 9 10 8 8 10 11 11 10 11 11 10 10 10 9 9 11 11 11 13 13 13 14 13 13 13
25 24 24 24 25 25 25 27 27 28 27 26 25 24 24 24 24 22 21 21 20 20 20 20 20 19 19 19 19 19 18 18 17 17 17 17 16 16 16 15 15 14 13 12 12 12 12 12 12 12 11 11 11 10 10 10 11 11 10 9 9 10 8 7 10 10 9 10 11 11 10 10 10 9 9 10 11 12 13 13 13 13 13 13 13
27 26 26 26 26 26 27 29 28 28 27 25 24 24 24 24 23 22 21 20 20 19 19 19 19 19 19 19 18 18 18 17 16 16 16 16 16 15 15 14 14 13 12 12 12 11 11 11 11 11 10 10 9 9 9 8 9 10 10 9 9 10 8 6 8 9 8 9 11 11 10 10 10 10 9 11 12 12 13 13 13 13 13 13 13
28 28 26 27 27 27 30 30 28 28 26 24 24 23 23 23 22 22 21 20 19 19 19 18 18 18 18 18 18 17 17 16 15 15 15 15 14 14 14 13 13 12 11 11 11 11 10 10 10 9 9 9 8 8 8 8 8 9 9 9 9 9 8 6 7 8 9 10 12 12 11 9 10 11 10 11 13 13 13 13 14 14 13 13 13
27 28 27 29 28 29 31 29 29 28 26 24 23 24 23 22 21 21 20 19 19 19 18 18 18 17 17 17 17 17 16 15 14 15 14 14 13 13 13 12 12 11 10 10 10 10 9 9 9 8 8 7 7 7 7 7 7 8 9 9 8 8 7 7 8 10 11 12 13 13 12 9 10 11 10 12 13 13 14 14 14 13 13 12 13
26 26 27 28 28 29 30 29 28 27 27 25 23 24 22 21 21 21 20 19 19 18 18 17 17 17 16 16 16 16 15 14 14 14 13 13 13 12 12 11 11 10 10 9 9 8 8 8 8 7 6 6 6 6 6 6 6 7 8 8 7 7 7 7 9 11 12 12 13 13 13 10 10 11 10 12 13 14 14 14 14 13 12 12 12
25 24 26 27 28 29 28 28 27 26 26 25 23 22 21 20 20 20 20 19 19 18 18 17 17 16 15 15 15 15 14 13 13 13 12 12 12 12 11 11 11 10 10 9 9 8 8 7 6 5 5 5 5 5 5 5 6 6 7 7 6 7 7 8 9 10 11 11 12 12 13 11 10 11 10 11 12 12 13 14 14 13 12 11 12
24 24 26 27 27 27 27 27 26 26 25 23 22 21 20 20 19 19 19 19 18 18 17 17 16 15 15 15 15 14 13 12 12 12 12 11 11 11 11 10 10 10 10 10 10 9 8 8 7 5 4 4 5 5 5 5 5 5 7 7 6 7 6 7 9 10 11 12 12 12 13 10 10 11 10 11 12 11 11 13 13 13 13 11 11
25 26 27 26 26 25 26 25 24 24 23 22 21 20 19 19 19 19 19 18 18 17 16 16 15 15 14 14 14 14 13 12 11 11 11 10 10 10 10 10 10 10 10 11 11 11 10 9 8 7 6 5 6 5 4 4 5 5 6 7 7 7 6 7 9 10 12 13 14 13 12 9 10 11 10 10 11 11 11 11 12 13 13 13 12
27 28 28 26 25 25 25 24 24 23 23 22 21 20 19 20 19 19 19 18 18 17 15 15 14 14 14 14 14 13 12 11 10 10 10 9 9 9 9 9 9 10 11 12 12 12 11 10 9 9 8 7 8 7 5 4 5 5 6 7 7 7 7 7 9 10 12 14 15 14 11 9 10 11 10 10 11 12 11 11 11 12 12 13 13
29 29 29 27 26 25 24 24 24 23 22 21 21 21 20 20 19 19 18 17 17 15 15 14 14 14 13 13 13 12 11 10 9 9 9 8 8 8 8 8 9 10 10 11 12 12 11 10 10 11 10 10 10 10 9 7 6 5 6 6 7 7 7 7 8 10 12 14 15 13 10 8 10 11 11 11 11 12 12 11 11 11 11 11 13
32 31 30 28 26 25 24 24 23 23 22 21 21 21 20 20 19 19 18 17 16 15 14 14 13 13 13 12 12 11 10 9 9 8 8 7 7 7 6 8 9 10 10 11 11 11 11 10 10 11 11 11 11 11 11 9 8 7 7 7 7 7 7 7 8 9 11 14 14 12 9 7 10 12 11 11 11 12 12 12 11 11 10 10 12
32 32 31 28 26 25 24 23 23 22 22 22 21 21 20 20 19 18 17 16 15 15 14 13 13 12 12 11 11 10 9 8 7 7 7 6 6 6 5 7 9 10 10 10 10 11 10 9 9 10 11 11 11 12 11 9 8 8 7 7 7 7 7 7 8 9 11 13 12 10 8 7 10 12 12 11 11 12 12 12 11 11 10 10 10
32 32 31 29 27 26 24 23 22 22 21 21 21 20 20 19 19 18 17 15 15 14 14 13 13 12 11 10 10 9 8 7 6 6 6 5 5 4 4 5 7 9 9 10 10 10 9 9 8 9 10 12 12 13 12 9 8 7 7 7 6 6 6 6 7 9 10 11 10 9 7 7 10 11 12 12 12 11 11 11 11 11 10 10 9
31 32 30 29 27 26 24 24 22 22 21 21 20 20 20 19 18 17 16 15 15 14 14 13 12 11 10 9 9 8 8 7 5 5 5 5 4 3 4 4 6 8 9 9 10 10 9 9 9 8 9 11 12 13 12 10 8 7 6 6 6 5 5 5 6 8 9 10 9 7 7 8 9 9 11 12 12 12 12 12 11 11 11 11 10
30 31 30 29 27 26 25 24 23 22 22 21 21 20 19 19 18 17 16 16 15 14 13 12 11 11 10 9 9 8 7 7 5 4 4 4 3 4 4 4 5 6 7 8 9 10 10 10 10 9 9 10 10 11 10 9 7 7 6 5 5 4 4 5 5 6 7 8 8 6 7 7 8 8 9 11 12 12 12 12 12 11 11 12 10
28 29 29 28 26 25 25 24 24 23 23 22 21 20 19 18 18 17 16 16 15 14 13 12 11 10 9 9 8 8 7 7 5 4 4 3 3 4 4 4 4 4 6 7 8 9 10 10 10 10 9 8 8 9 8 5 5 7 6 3 3 3 3 4 5 5 6 7 7 6 6 6 7 8 9 10 11 11 11 12 11 11 11 11 11
26 27 28 27 25 25 25 25 24 23 23 22 21 21 19 18 18 17 16 15 14 13 12 12 11 10 10 9 9 8 7 6 5 5 4 3 3 4 4 3 3 3 5 6 8 9 10 10 10 10 10 9 7 7 5 4 6 7 5 4 3 2 2 4 4 4 5 6 5 5 4 5 7 9 9 9 10 10 10 11 11 11 11 11 11
26 26 26 26 24 24 25 25 24 24 23 22 22 21 20 19 18 18 16 15 14 13 13 12 12 11 11 10 9 8 6 6 4 4 4 3 3 3 3 3 3 3 4 5 6 7 8 9 9 9 10 10 8 7 4 4 8 9 7 6 5 4 4 4 4 3 4 4 4 4 3 4 7 9 9 9 9 9 9 10 11 11 10 10 10
26 26 26 26 25 25 25 26 25 24 24 23 23 22 21 20 19 18 17 16 15 14 14 13 12 11 11 10 9 8 7 6 5 5 4 3 3 3 1 2 3 3 4 5 5 5 6 7 8 9 10 10 8 8 5 3 6 8 8 8 8 7 5 5 5 3 4 4 4 4 3 4 6 8 9 9 9 9 8 9 10 11 10 10 10
26 27 27 27 27 26 26 27 26 26 24 23 23 22 22 20 19 18 17 17 15 15 14 13 12 11 10 9 8 8 7 7 6 6 6 5 2 2 1 1 2 2 3 4 5 5 5 7 8 9 10 10 8 7 6 2 3 5 6 7 7 7 6 5 5 4 2 3 4 4 4 4 5 8 9 9 10 9 8 9 10 11 11 11 11
26 27 27 27 27 26 27 27 26 27 25 24 24 23 23 21 20 19 18 17 16 15 14 13 12 10 9 8 8 7 7 7 6 6 8 6 3 2 3 2 0 1 2 3 5 5 6 7 7 8 9 8 7 5 5 3 1 3 4 4 4 4 5 5 4 4 3 2 3 4 4 4 5 7 9 9 10 10 9 9 10 10 11 11 11
26 27 27 27 28 27 27 27 28 27 25 24 23 23 23 21 21 20 18 17 16 15 14 13 12 10 9 9 9 8 7 7 7 7 6 5 5 5 4 3 1 0 1 3 4 5 7 7 7 7 8 7 5 4 4 3 2 2 4 4 5 3 1 2 3 3 3 3 4 5 5 4 4 7 9 10 11 12 11 10 10 10 11 11 11
27 27 28 28 28 28 28 28 29 28 26 24 22 22 24 21 20 19 18 17 16 16 15 13 12 12 12 12 11 9 7 7 8 8 6 5 7 7 5 4 2 1 1 2 3 4 5 6 6 6 6 5 3 3 3 2 1 3 3 4 5 6 5 2 1 2 2 2 5 6 5 4 4 6 8 10 11 12 13 12 12 11 11 11 11
26 27 28 29 29 29 29 29 30 29 26 25 22 21 23 21 19 18 17 16 16 16 15 14 13 13 13 13 11 9 8 8 8 7 6 6 6 7 7 6 3 1 1 1 2 3 4 3 4 5 5 4 2 4 3 1 2 3 1 1 2 2 4 3 2 1 1 1 4 5 5 4 4 6 8 10 11 12 14 14 13 13 12 11 11
26 27 28 29 30 29 29 29 30 29 26 25 24 21 22 22 20 19 18 16 15 15 15 15 14 14 13 13 12 10 10 8 6 6 7 7 7 6 6 6 4 1 2 2 2 2 2 2 2 4 4 3 1 4 5 4 8 5 3 1 3 3 3 0 3 3 3 4 5 4 4 4 4 5 8 10 10 12 13 14 14 14 13 12 11
27 29 28 28 30 29 30 30 29 29 26 25 25 22 22 22 22 21 20 19 17 15 16 17 16 15 14 14 13 11 10 7 5 6 7 7 7 6 5 5 4 2 3 4 4 4 3 2 2 2 1 1 0 3 4 5 9 6 5 4 2 1 2 1 3 6 6 7 7 6 4 4 4 4 6 8 10 11 12 13 14 14 14 13 12
29 30 29 29 30 30 30 29 29 28 27 26 25 24 23 23 22 22 21 20 18 16 17 18 17 16 15 14 13 11 10 7 5 6 6 6 7 6 5 5 3 3 5 4 4 3 3 2 1 1 1 1 1 2 3 6 5 4 7 6 3 1 2 3 2 4 8 10 8 6 5 5 4 4 5 6 8 10 10 12 13 13 13 13 12
30 31 30 30 30 31 30 29 29 29 27 25 24 24 24 23 21 22 21 19 18 17 17 18 17 16 15 15 15 13 11 8 7 7 6 6 7 7 7 7 5 6 6 5 4 2 3 2 1 1 1 3 2 1 3 3 2 3 5 3 3 3 3 5 4 5 7 13 10 6 6 6 5 5 4 4 5 7 8 10 12 13 13 14 15
31 31 31 31 30 31 30 29 30 29 28 25 24 24 24 23 21 21 21 19 18 17 17 17 17 16 15 17 17 16 13 9 9 9 8 7 7 7 7 8 8 7 7 5 4 3 3 2 1 1 0 3 1 2 3 1 2 4 4 1 2 2 3 5 6 4 6 11 9 7 6 6 6 6 5 4 4 5 6 8 10 12 14 14 16
30 31 32 32 29 30 30 29 30 30 29 26 25 24 23 23 21 20 20 20 18 17 17 16 17 16 16 17 17 16 15 12 12 11 11 10 9 8 8 8 8 7 7 6 5 5 4 4 3 1 1 4 2 1 2 1 2 3 2 2 2 1 2 7 7 6 10 11 10 9 8 7 7 7 6 4 3 4 5 6 8 10 13 14 15
31 31 33 34 30 30 30 29 30 30 29 26 25 25 24 24 21 21 20 20 19 18 17 15 16 17 15 16 16 15 15 15 14 12 12 12 11 9 9 9 8 7 7 7 7 6 5 5 3 1 3 4 3 2 3 2 2 4 2 1 1 1 1 7 8 9 11 12 13 11 10 9 8 8 7 5 4 4 4 5 6 8 10 12 14
32 30 33 34 31 31 31 29 30 31 30 26 25 25 24 24 21 20 20 19 20 19 18 15 15 16 15 15 15 14 15 14 13 12 12 12 11 9 9 9 8 7 8 8 8 7 6 5 4 3 4 5 4 2 4 3 2 4 1 2 1 3 2 4 5 6 6 8 11 11 11 10 9 9 8 7 7 6 5 4 5 7 8 10 11
33 31 31 33 32 31 31 30 30 31 31 26 25 25 24 23 21 20 20 20 19 19 18 17 16 17 16 15 16 15 15 15 13 12 12 12 11 10 10 9 8 8 8 9 8 7 6 5 4 4 5 5 3 2 3 3 2 3 2 1 2 3 2 1 2 2 3 5 6 9 11 11 11 10 9 9 8 7 6 5 5 6 7 8 9
35 33 31 32 32 32 32 32 31 31 31 27 24 25 24 22 21 21 21 20 19 19 18 18 17 17 17 17 17 16 15 15 13 12 11 11 11 10 10 9 8 8 8 9 8 7 6 5 5 6 6 5 3 3 3 2 1 1 3 1 1 2 3 4 5 4 4 3 5 10 12 12 12 11 12 12 10 8 6 4 5 6 7 8 7
35 34 32 33 31 31 32 32 33 31 31 29 24 24 25 23 22 20 19 19 19 19 17 17 17 17 18 18 17 17 17 16 13 11 11 10 10 10 10 9 8 8 8 9 8 7 6 5 5 7 5 3 3 4 3 2 2 2 1 1 1 2 3 4 5 6 7 2 6 13 14 14 13 11 13 13 12 10 8 6 4 5 7 6 5
33 34 33 34 31 30 32 31 34 34 31 31 26 23 25 24 23 20 18 19 19 18 18 17 17 17 17 17 18 17 17 16 14 12 10 10 9 9 10 10 9 8 8 8 7 5 5 5 6 5 4 3 4 4 4 4 3 3 2 1 2 4 3 1 4 8 7 2 11 19 17 15 13 11 13 13 11 10 9 8 7 6 6 5 5
32 34 33 35 33 30 32 31 32 35 33 33 30 26 26 25 24 24 21 20 20 19 19 17 17 18 18 18 18 17 16 16 14 13 11 9 8 9 11 12 11 9 7 7 5 5 6 7 6 3 4 5 5 4 5 5 2 1 1 3 3 6 2 1 2 5 3 1 16 23 17 16 15 13 15 14 11 9 7 6 7 7 6 5 4
31 35 34 35 34 30 31 31 31 35 35 35 33 29 28 27 26 26 24 21 21 21 20 19 17 17 18 18 17 16 16 16 14 13 12 10 9 11 13 13 11 9 6 5 5 7 8 7 5 4 4 5 5 4 4 4 1 4 3 4 2 5 5 3 4 5 6 2 16 19 15 16 17 17 17 14 11 9 8 6 6 5 5 5 4
31 34 35 35 35 32 31 31 31 33 35 35 35 32 29 29 28 27 25 22 22 22 21 20 18 18 18 18 17 17 17 15 14 13 12 11 11 12 13 12 11 9 7 9 10 9 8 7 6 5 5 4 4 3 3 3 3 3 4 3 0 1 3 4 5 6 5 8 17 14 12 16 17 16 15 14 12 10 9 7 7 6 4 4 4
30 32 34 35 37 36 33 33 32 31 34 35 34 33 30 27 26 25 24 22 21 22 21 20 19 19 19 19 18 17 17 16 15 14 13 12 11 11 11 11 11 10 11 13 13 10 8 8 8 7 6 4 0 2 4 4 4 3 3 1 1 1 1 3 4 3 4 14 18 13 13 15 15 12 11 13 12 9 8 8 9 9 6 4 4
31 32 35 36 37 38 36 35 34 31 32 34 33 32 30 26 24 23 23 21 20 22 24 22 22 21 19 20 21 18 17 17 15 14 13 13 12 10 10 12 14 14 13 13 14 11 9 10 10 9 8 4 2 1 4 7 5 2 2 3 1 1 1 3 3 3 5 10 17 17 15 14 12 10 12 14 12 9 8 8 11 11 8 6 5
33 34 36 36 36 38 37 35 35 33 31 33 33 32 31 29 27 26 26 24 21 23 27 26 25 24 21 20 21 19 18 17 15 14 14 14 13 12 13 14 16 16 13 12 15 13 11 12 10 10 8 6 5 4 5 9 6 2 2 6 4 2 2 2 2 1 5 7 14 16 12 11 10 11 15 17 14 11 8 8 10 9 8 8 6
33 35 35 35 35 36 37 35 36 36 33 32 34 34 32 31 30 28 28 28 24 22 26 27 24 22 21 20 20 19 17 16 15 14 15 15 14 15 16 16 16 16 14 13 15 14 12 13 11 10 9 8 8 4 6 8 7 3 4 6 5 3 2 0 1 1 2 3 5 11 13 11 9 11 15 17 16 12 9 9 8 7 8 7 5
33 34 34 35 36 36 38 36 35 37 36 33 33 35 35 33 32 29 27 28 27 23 23 24 22 20 21 20 19 19 17 16 16 16 16 16 16 17 19 18 16 17 16 15 16 14 11 13 14 12 10 9 8 6 6 6 5 4 7 6 5 5 4 2 1 2 3 0 3 4 10 10 9 11 14 16 16 12 9 8 8 8 9 8 5
34 34 34 35 37 37 38 37 34 35 37 36 34 35 36 34 33 30 27 27 27 25 22 22 21 20 21 21 20 19 18 17 18 18 18 18 18 20 21 19 17 18 16 15 15 14 13 16 15 13 11 10 8 7 7 5 5 5 7 6 6 6 4 3 3 2 3 2 2 1 4 6 7 9 14 17 13 10 7 7 8 8 9 9 6
36 36 36 35 36 37 37 37 36 35 37 38 37 35 35 35 33 31 29 27 26 25 23 22 22 21 22 22 22 22 21 21 21 20 19 21 21 21 22 21 20 20 17 13 14 14 16 17 14 12 11 10 8 8 7 5 4 5 5 5 7 7 4 3 5 5 3 2 1 1 5 7 3 4 13 16 11 8 7 5 7 7 8 9 8
36 36 36 35 36 37 38 38 38 36 36 38 39 37 35 35 34 33 31 29 28 26 25 25 24 23 23 23 25 26 24 23 24 22 22 23 22 21 23 23 22 21 17 14 14 16 17 15 13 11 10 11 10 8 8 6 5 6 5 5 7 7 4 4 6 7 6 4 2 1 3 6 3 4 6 9 9 9 6 4 5 6 7 10 9
Wind_Direction
142 136 134 138 138 134 134 138 135 135 133 128 126 124 123 122 122 118 115 114 113 112 111 111 111 112 112 114 115 114 111 109 105 105 106 105 103 101 101 99 94 90 88 86 85 84 81 78 77 77 78 80 81 83 85 85 86 86 89 93 95 95 92 92 96 96 94 94 96 98 101 104 106 104 105 108 114 114 108 106 109 108 103 100 98
143 139 136 139 139 137 135 137 135 134 132 128 129 127 125 125 125 121 118 116 116 115 112 112 112 113 114 116 115 112 110 107 106 106 105 103 102 101 101 98 93 89 87 85 85 84 82 79 77 77 77 80 81 81 80 82 85 85 86 89 95 95 94 96 101 103 99 96 96 98 101 104 106 107 108 110 117 116 109 109 114 109 103 100 97
139 141 137 138 139 140 137 136 136 135 133 130 131 129 128 129 128 125 122 120 118 117 114 113 113 115 117 116 115 112 109 107 107 106 104 103 102 101 100 95 91 89 87 85 85 85 83 80 77 77 77 78 80 81 79 80 82 85 86 87 94 95 97 101 105 106 103 103 103 100 100 103 106 107 109 113 119 119 113 115 117 110 105 102 99
141 143 140 141 141 143 141 140 139 137 135 132 132 131 131 132 132 129 126 125 122 119 116 115 116 117 117 116 114 111 109 108 108 106 106 105 103 102 98 94 90 89 87 87 87 85 84 80 78 76 75 75 77 79 80 80 80 80 81 84 95 101 102 104 111 110 110 114 110 103 103 107 107 106 111 117 122 122 119 120 119 113 110 107 102
144 144 144 144 144 146 144 144 142 139 136 133 134 134 134 134 134 133 131 129 125 121 118 117 118 119 118 116 114 111 110 109 109 108 108 106 104 102 98 94 91 90 88 87 85 83 81 79 78 76 74 74 76 77 78 79 80 77 75 80 94 109 115 111 116 116 114 121 116 111 108 110 110 108 111 117 123 124 124 124 123 118 114 111 106
143 143 145 144 144 147 145 145 143 141 137 135 136 136 137 136 136 135 134 132 128 123 120 120 121 121 120 117 115 113 111 111 110 110 108 106 106 103 99 95 92 90 88 86 82 79 77 77 76 75 74 73 75 78 79 77 78 77 74 80 95 114 124 115 113 114 120 126 124 121 112 113 118 115 115 119 125 126 128 129 127 122 117 115 112
142 143 144 143 145 148 147 146 145 142 137 136 139 138 137 137 137 136 135 132 129 125 123 123 124 123 121 119 116 114 113 112 112 111 108 107 106 103 99 95 92 89 87 85 80 78 77 77 74 74 73 71 73 76 79 78 77 79 77 83 97 111 118 113 102 106 125 128 126 126 120 124 126 120 120 122 128 130 131 133 130 126 121 120 117
143 144 144 144 146 150 150 148 147 144 139 139 141 138 137 136 136 137 136 134 131 128 127 127 126 125 122 120 118 116 114 114 113 111 108 107 106 102 99 95 91 86 83 81 79 77 74 74 72 72 73 72 76 77 79 80 81 83 84 87 97 102 98 97 98 107 126 129 129 131 129 134 132 126 126 124 129 134 133 133 132 129 124 124 122
142 143 143 143 144 148 149 150 149 146 142 141 142 139 137 136 136 137 137 136 134 131 130 129 128 126 123 121 119 118 116 116 114 110 109 107 106 102 98 93 89 83 78 73 70 69 68 69 67 67 70 75 82 86 85 84 86 89 94 95 96 95 87 87 94 107 123 130 132 135 139 144 137 132 131 128 130 134 134 133 133 131 128 128 128
142 143 143 142 142 145 148 150 149 147 144 142 144 142 139 137 138 139 138 137 136 134 133 132 130 127 125 123 121 120 119 117 113 111 111 109 107 103 97 92 86 78 69 61 58 61 64 66 67 69 71 81 88 89 93 94 93 94 101 104 98 87 89 93 98 111 121 128 132 137 146 148 138 135 134 131 130 133 135 136 136 134 132 132 132
144 146 144 143 143 144 147 149 149 146 144 145 149 147 144 141 141 142 141 140 138 136 135 134 132 130 128 126 125 124 122 119 116 115 114 112 108 102 96 90 81 70 63 59 59 63 67 71 70 72 73 81 90 92 97 105 104 102 104 110 104 87 90 95 100 119 123 124 128 135 145 145 138 135 135 133 130 132 135 136 137 138 136 136 134
149 150 145 145 144 145 146 147 147 146 145 148 151 150 149 145 144 145 143 142 141 139 138 136 135 133 132 130 129 126 124 121 120 117 115 113 108 103 97 89 77 65 63 62 62 63 66 70 69 68 71 75 83 92 101 106 110 111 111 114 109 93 94 95 98 117 125 129 128 134 145 144 138 135 134 136 132 133 135 135 138 140 140 140 138
150 151 147 147 147 148 147 147 147 147 149 151 151 150 150 148 147 148 146 145 144 144 142 140 138 137 136 134 132 129 127 123 120 117 115 113 110 105 97 88 74 64 65 64 63 65 63 63 65 66 69 74 73 76 79 87 106 115 116 116 108 99 103 103 103 111 125 136 134 137 146 141 137 136 135 135 131 133 135 136 136 137 140 143 142
150 151 149 150 151 150 148 148 148 149 152 152 152 150 149 149 149 150 148 147 148 150 148 144 143 141 141 139 134 131 129 123 119 118 118 117 113 103 93 85 72 62 65 65 64 67 65 61 66 70 70 73 73 71 69 71 87 103 115 117 108 106 113 110 108 109 122 138 141 143 144 138 137 135 135 135 130 131 133 134 133 131 133 140 144
152 152 151 151 151 151 149 150 150 151 152 152 152 150 150 151 151 151 150 150 152 154 151 147 146 146 145 141 137 133 130 127 122 122 124 121 112 100 86 81 70 59 61 64 63 66 65 63 68 72 71 74 77 74 70 72 78 90 110 122 117 112 112 106 106 108 122 138 145 145 139 134 138 137 137 136 132 131 131 134 133 132 129 132 142
155 152 151 152 152 152 153 153 153 153 153 153 153 151 152 153 152 153 152 153 154 155 152 151 150 148 148 146 140 135 133 133 127 127 126 121 115 100 81 71 63 55 60 63 64 66 65 66 69 71 73 76 77 73 71 72 75 87 109 124 120 110 103 99 104 107 119 135 143 143 137 135 138 139 141 139 136 135 135 137 136 134 132 130 139
154 152 151 151 153 155 156 156 155 154 154 154 153 153 153 154 155 155 155 156 157 156 154 153 153 151 151 149 144 139 138 140 135 131 128 124 118 103 87 66 54 51 57 63 65 66 66 69 70 72 76 78 76 73 71 70 73 87 110 123 107 97 101 98 106 111 119 132 144 146 137 141 144 142 144 144 142 140 139 141 140 137 137 135 138
153 154 152 152 154 156 158 158 158 156 156 154 153 154 154 155 156 157 159 160 160 159 158 156 155 155 155 152 147 145 144 145 142 134 132 128 120 110 95 64 48 45 51 62 64 65 70 72 72 73 79 83 79 75 73 71 77 87 100 112 99 96 114 106 106 114 120 129 147 152 139 143 149 147 146 147 147 149 148 146 147 144 142 142 142
155 156 154 155 156 158 160 160 161 160 158 157 156 156 156 157 158 160 162 162 162 161 161 160 159 158 157 155 150 148 148 148 146 140 139 131 120 113 87 58 44 40 49 60 63 68 73 74 75 76 82 87 81 73 67 67 84 102 106 115 113 104 103 108 114 114 119 131 149 154 143 146 151 152 150 151 153 156 157 153 152 149 148 148 148
156 158 157 157 158 160 161 162 163 163 162 160 159 160 160 161 162 163 165 164 165 165 164 163 160 160 159 157 155 156 157 152 152 149 139 132 118 97 67 53 42 39 53 62 67 76 79 77 79 79 82 85 76 66 55 47 76 103 104 105 133 116 74 98 116 117 122 133 149 155 147 150 156 159 158 156 158 160 162 159 156 154 154 153 153
156 161 161 159 160 164 165 164 164 166 165 164 164 164 164 165 166 166 167 168 169 169 167 164 162 162 163 162 164 162 157 154 157 157 143 129 115 84 64 57 35 47 67 72 75 82 84 80 81 82 78 72 66 65 52 16 32 59 67 61 98 104 73 93 103 117 132 134 147 158 151 155 165 166 166 164 160 161 163 164 162 160 160 158 160
157 162 163 162 165 170 169 166 166 168 169 169 168 168 168 169 170 170 171 172 173 173 171 169 169 168 169 169 169 163 157 163 165 168 166 151 128 99 80 63 48 71 89 88 81 80 83 78 75 73 70 66 55 51 43 347 11 29 36 41 51 51 51 66 73 102 132 145 150 153 161 165 171 170 170 171 165 164 163 166 168 166 165 164 165
159 163 166 167 170 174 171 168 168 168 171 172 172 172 172 173 174 175 175 176 176 177 175 174 175 174 175 173 169 165 166 179 181 182 195 192 148 124 107 63 65 84 108 108 92 75 71 69 63 60 61 59 44 38 44 348 353 13 21 24 26 28 29 40 51 82 131 167 160 141 167 178 176 174 172 174 172 171 167 169 173 172 172 170 169
162 164 166 168 172 175 172 173 170 168 174 175 175 176 175 176 178 179 179 179 179 180 179 178 179 178 180 175 171 173 173 185 188 187 203 212 194 162 232 2 65 82 114 115 105 80 63 64 58 57 55 51 49 43 47 44 341 354 11 17 25 33 27 34 46 49 91 177 164 137 155 174 177 177 177 177 177 179 176 173 176 178 178 175 174
162 164 167 168 172 175 173 175 171 169 177 176 178 179 178 179 181 183 183 182 183 182 182 183 183 181 182 178 183 191 186 192 196 197 204 212 229 244 267 282 34 84 105 106 100 72 63 65 56 55 50 50 59 44 24 32 24 327 336 353 15 45 40 37 41 39 53 104 153 146 143 157 175 179 182 183 182 184 184 181 179 180 183 182 180
162 166 168 170 173 173 174 175 170 172 178 178 180 180 181 182 183 186 186 187 188 185 186 186 185 186 190 189 198 209 202 202 206 206 204 211 243 263 267 266 265 160 111 98 91 70 72 67 58 59 54 59 63 37 354 358 43 331 307 303 307 298 1 46 45 48 61 92 139 153 142 151 177 183 185 188 188 188 189 187 184 184 185 186 185
164 167 167 169 172 173 176 175 171 175 178 178 182 182 183 184 184 186 187 189 190 190 189 188 189 193 197 198 206 212 205 209 206 203 199 201 231 247 249 253 261 197 151 92 90 79 76 64 61 68 58 63 52 4 333 319 7 334 300 288 292 280 279 274 107 67 39 112 146 150 137 140 177 189 190 191 191 193 193 190 189 189 188 189 188
163 165 166 169 171 173 177 176 174 176 177 178 184 185 182 182 186 186 189 192 191 192 190 190 195 198 200 200 207 210 207 211 203 201 200 196 213 227 230 233 238 211 195 106 89 72 68 70 73 75 66 69 28 359 21 102 10 353 160 72 21 348 319 274 196 114 341 235 171 153 132 126 161 187 195 193 192 195 197 196 195 193 190 190 188
163 165 167 169 172 175 176 177 177 176 176 179 184 185 178 181 188 188 191 193 196 195 188 194 200 198 202 201 205 210 211 212 209 210 203 198 205 213 214 211 219 204 181 158 120 116 110 124 103 95 89 83 24 31 73 72 21 23 143 86 61 56 19 152 211 221 247 251 204 166 136 125 138 174 193 194 193 194 198 203 201 197 192 189 188
166 167 170 170 173 177 177 178 179 176 177 181 183 182 179 184 190 188 192 195 200 200 190 199 204 201 204 201 201 206 210 212 212 207 197 192 189 195 196 191 209 195 167 156 153 172 176 171 154 143 104 37 307 71 66 27 17 35 73 63 74 49 7 53 231 223 230 233 202 175 152 130 123 143 181 193 195 195 198 205 206 203 196 190 188
168 168 172 173 174 177 177 180 180 176 178 183 183 182 182 189 190 189 192 195 199 199 195 202 205 204 204 200 198 199 207 207 192 183 180 178 173 179 185 187 201 179 165 167 179 195 188 190 208 243 358 57 129 89 17 7 15 38 59 66 61 42 349 349 300 271 246 218 190 179 165 139 129 124 149 177 191 197 198 203 208 208 202 194 191
168 169 174 174 175 177 177 181 181 178 180 183 184 183 185 190 192 191 193 192 194 196 197 202 204 203 200 197 195 195 205 202 181 172 171 176 180 187 183 178 178 174 182 196 210 214 197 230 282 296 43 116 122 51 355 27 102 0 31 70 41 43 345 332 342 334 243 202 181 181 172 147 139 120 126 154 179 195 199 202 207 208 204 200 197
169 172 174 175 177 176 178 182 182 181 181 182 184 186 187 190 192 191 190 187 191 196 197 201 203 203 200 198 196 194 198 195 187 181 176 184 196 199 193 186 184 188 204 215 219 214 220 242 200 267 103 164 166 357 339 36 153 333 343 157 45 33 359 351 0 32 174 183 174 173 167 151 142 123 118 134 165 189 202 205 207 208 206 205 203
171 173 175 176 177 177 179 182 184 184 182 183 184 186 188 190 189 186 188 189 190 193 195 198 201 203 203 200 199 199 198 198 204 202 193 201 210 210 211 207 203 208 219 223 222 220 226 219 193 212 179 180 195 319 312 249 146 36 22 132 91 61 25 9 12 79 125 148 155 149 143 141 139 130 120 119 149 176 199 209 213 210 208 209 210
172 174 176 178 179 178 180 181 185 185 183 185 185 187 188 188 187 185 189 192 191 193 193 196 196 196 199 197 200 203 201 203 212 215 208 210 217 218 220 219 219 227 233 232 228 223 221 221 215 191 181 188 196 228 313 292 160 98 67 49 47 252 333 20 42 83 102 125 135 128 124 126 128 128 114 111 134 158 183 198 212 214 211 214 217
175 176 176 178 180 180 180 180 185 185 184 187 186 187 188 188 190 188 192 194 193 193 192 196 195 195 201 203 204 204 202 207 216 218 213 212 214 219 226 229 232 237 242 240 231 221 216 224 233 209 194 191 190 224 342 340 128 118 115 17 28 232 271 28 68 77 76 110 122 116 110 107 113 113 102 113 128 146 167 178 202 209 212 219 220
178 178 176 178 180 180 181 181 185 186 185 187 185 186 188 188 189 190 195 196 193 193 192 197 201 203 208 209 208 208 207 210 217 217 213 215 213 219 233 238 240 239 240 236 229 224 224 230 231 205 183 166 174 260 331 350 68 140 213 35 111 210 286 276 168 134 116 122 134 133 114 103 108 98 87 100 114 136 155 163 190 196 201 216 222
180 181 180 181 181 181 180 181 185 187 187 186 183 186 187 186 187 190 194 193 192 195 196 197 202 208 210 212 213 213 212 211 218 218 214 220 217 220 237 242 238 235 235 235 232 229 233 237 213 185 172 166 194 247 275 313 358 217 232 16 140 246 293 239 208 200 175 144 167 153 119 108 110 94 88 92 91 104 119 138 176 187 191 207 218
179 182 183 183 184 183 181 181 184 186 188 186 184 185 185 184 185 186 190 192 195 197 200 201 202 208 211 216 220 217 214 213 219 221 218 225 220 217 231 237 232 234 239 238 234 232 236 230 196 172 165 182 219 239 255 245 258 274 259 45 292 281 298 246 210 185 175 141 157 151 124 114 111 96 98 96 88 90 90 93 119 166 180 194 202
179 181 182 184 186 186 182 181 182 185 187 185 186 184 180 183 187 187 190 195 197 196 202 205 203 208 212 215 219 217 214 215 221 224 225 229 224 219 226 228 226 232 240 237 234 236 223 194 170 159 175 212 228 242 257 238 248 268 247 356 269 275 313 198 179 169 173 120 130 135 126 121 113 102 107 104 100 94 86 83 85 110 141 163 183
180 181 181 183 186 187 184 183 182 184 185 184 186 185 181 182 186 191 194 194 194 196 202 206 202 206 212 211 213 215 215 217 222 227 230 230 222 215 218 222 223 230 238 235 230 209 184 167 156 168 200 209 217 245 260 246 265 8 327 328 268 244 265 92 179 173 191 134 131 133 130 125 115 116 120 114 110 99 81 87 88 94 111 124 144
181 182 182 183 186 188 187 186 183 183 185 185 186 187 187 187 187 191 195 197 198 200 203 206 202 204 211 211 209 214 217 219 224 231 231 227 219 212 214 218 222 228 222 199 184 167 160 159 165 173 181 197 211 223 224 206 139 51 5 330 286 226 237 260 249 247 284 213 139 136 133 126 116 120 127 123 118 101 83 97 109 102 111 113 106
182 182 183 185 188 191 191 189 186 184 184 185 186 188 190 192 193 192 195 199 203 205 206 206 205 207 212 213 211 214 217 220 227 229 223 221 222 218 217 220 221 215 184 162 156 152 153 166 179 180 187 209 224 213 196 184 161 79 41 2 292 199 246 261 268 289 284 173 152 140 133 129 124 125 130 128 124 108 90 100 120 118 119 123 111
182 181 183 185 188 192 193 192 189 187 185 185 188 191 191 194 197 197 196 199 205 208 208 207 209 209 210 214 215 215 217 220 224 221 213 216 221 217 212 208 200 183 164 155 155 157 166 177 185 192 193 194 235 225 204 180 159 130 73 60 208 94 53 288 299 348 108 153 157 149 142 139 131 135 143 136 126 114 98 100 118 118 116 134 136
183 184 185 186 188 191 192 193 192 189 187 187 189 190 190 191 194 195 196 200 204 202 202 205 207 208 208 211 213 214 217 219 220 217 213 210 206 200 191 182 171 163 160 161 167 175 173 171 179 186 180 166 141 131 172 176 158 109 135 149 75 75 209 306 340 24 60 123 148 149 145 145 136 131 139 141 135 128 117 109 119 126 130 145 153
187 188 188 188 189 190 191 192 193 192 190 189 190 189 188 190 190 189 192 199 199 193 196 201 203 205 206 205 206 211 217 216 211 208 203 193 185 181 177 172 165 164 171 174 180 189 181 172 177 178 171 172 177 124 116 168 171 81 130 142 108 104 207 327 26 27 14 84 141 155 154 147 140 134 135 140 141 138 132 125 127 136 144 153 167
189 190 191 189 188 189 190 191 193 194 193 190 190 188 187 189 191 190 192 196 197 193 195 198 200 203 203 201 203 207 214 211 198 189 186 179 177 182 181 176 171 173 181 182 183 190 187 180 178 172 170 174 182 150 104 143 157 143 149 137 125 134 150 79 81 105 1 33 118 153 165 165 152 147 145 145 149 147 136 135 145 156 155 156 178
189 190 190 189 189 189 190 192 193 194 194 192 190 190 189 189 191 194 193 193 197 197 195 196 200 202 200 199 201 204 207 203 191 181 180 179 181 188 187 182 179 179 184 185 185 189 188 179 174 172 177 181 186 173 133 124 111 140 173 158 154 183 177 166 179 134 143 10 5 132 161 173 167 162 160 158 160 158 140 133 153 171 172 170 182
188 190 190 190 191 190 190 192 193 194 195 194 191 190 191 190 191 194 194 194 198 200 197 196 198 200 198 198 199 199 194 189 185 181 183 188 186 188 190 189 188 183 183 187 187 190 187 176 172 178 187 193 197 191 170 147 106 118 163 172 156 164 165 154 190 195 141 125 319 358 83 120 157 168 169 167 162 157 144 133 144 161 178 182 189
188 190 191 191 191 190 190 191 194 195 194 195 194 191 191 191 191 193 195 196 197 199 198 196 195 195 195 196 197 195 188 182 186 185 185 191 189 189 192 193 192 188 185 189 187 185 183 182 186 192 190 187 188 194 185 163 145 127 142 175 163 156 161 158 169 171 148 126 201 237 63 82 113 149 162 170 167 158 155 143 145 158 180 186 196
187 188 189 191 191 190 190 191 194 196 194 195 195 193 192 191 192 194 195 196 196 195 196 196 196 194 194 196 195 192 186 181 187 188 185 189 191 193 193 191 193 193 191 196 197 190 188 192 199 195 184 177 175 186 184 164 164 160 157 182 174 168 180 180 172 167 162 158 165 187 96 85 70 76 133 165 170 163 156 151 162 176 193 195 201